Temperature
20 18 17 18 18 19 19 19 18 18 19 18 17 17 17 17 17 17 17 17 18 18 18 18 18 18 18 18 18 18 17 17 17 17 17 17 16 16 16 16 16 16 16 15
18 18 19 19 19 19 19 18 18 18 19 18 17 17 17 16 16 17 17 17 18 18 18 18 18 18 18 18 18 18 18 17 17 17 17 17 16 16 16 16 16 16 15 15
18 19 19 19 19 19 18 18 18 18 18 18 18 17 17 17 17 17 17 17 18 18 18 18 18 18 18 18 18 18 18 17 17 17 17 16 16 16 16 16 16 15 15 15
18 19 19 19 19 19 18 19 19 18 17 16 18 16 17 16 16 16 17 17 17 18 18 18 18 18 18 18 18 18 18 17 17 17 17 16 16 16 16 16 15 15 15 15
18 19 19 19 19 19 18 19 18 18 17 16 16 16 16 16 16 16 16 17 17 18 18 18 18 18 18 18 18 18 17 17 17 17 17 16 16 16 16 16 15 15 15 15
18 19 19 19 19 19 18 17 16 15 15 16 16 16 16 15 16 16 16 17 17 18 18 18 18 18 18 18 18 18 17 17 17 17 16 16 16 16 16 15 15 15 15 15
17 18 19 19 19 18 18 16 16 16 15 15 16 16 15 16 16 16 16 17 17 17 18 18 18 18 18 18 18 18 17 17 17 17 16 16 16 16 16 16 15 15 15 15
16 17 18 18 18 18 17 16 16 16 15 15 15 15 16 16 16 17 17 17 17 17 18 18 18 18 18 18 18 17 17 17 17 17 16 16 16 16 16 15 15 15 15 15
16 16 18 18 18 17 17 15 16 15 15 15 15 15 15 16 16 16 16 16 16 17 17 18 18 18 17 17 17 17 17 17 17 17 16 16 16 16 15 15 15 15 15 15
16 16 17 18 18 17 16 15 14 14 15 15 15 15 15 16 16 15 15 15 16 17 17 17 17 17 17 17 17 17 17 17 17 17 16 16 16 15 15 15 15 15 15 14
16 16 16 17 17 17 16 15 14 13 14 14 15 15 16 15 15 15 15 15 16 16 17 17 17 17 17 17 17 17 17 17 16 16 16 16 16 15 15 15 15 15 14 14
14 14 14 16 16 17 16 15 14 15 14 13 13 14 16 15 15 15 15 15 16 16 16 16 17 17 17 17 17 16 16 16 16 16 16 16 15 15 15 15 15 14 14 14
14 14 14 15 15 16 16 15 14 13 13 12 13 15 15 14 14 15 15 15 16 16 16 16 16 16 16 16 16 16 16 16 16 15 15 15 15 15 15 14 14 14 14 14
14 13 14 15 15 15 15 15 14 14 13 13 13 14 15 14 14 14 14 15 15 15 15 15 16 16 16 16 16 16 15 15 15 15 15 15 15 15 14 14 14 14 14 14
13 13 14 14 15 15 15 15 14 14 14 14 14 14 14 14 13 14 14 14 15 15 15 15 15 15 15 15 15 15 15 15 14 14 14 14 14 14 14 14 14 14 13 13
12 13 14 14 14 14 14 14 14 14 14 14 14 14 14 14 14 14 14 14 14 14 15 15 15 15 15 15 15 15 15 14 14 14 14 14 14 13 13 13 13 13 13 13
11 12 13 13 13 14 14 14 14 14 13 13 13 14 13 13 13 13 14 14 14 14 14 15 15 15 15 15 15 15 14 14 14 14 13 13 13 13 13 13 13 13 13 12
11 11 11 11 13 13 14 14 14 14 13 12 13 12 12 12 13 13 14 14 14 14 14 15 15 15 15 15 14 14 14 14 13 13 13 13 13 13 12 12 12 12 12 12
10 11 10 10 12 12 13 13 13 13 13 12 12 12 12 12 12 13 14 14 14 14 14 14 14 14 14 14 14 14 13 13 13 13 13 12 12 12 12 12 12 12 12 12
10 10 10 10 12 12 13 13 13 13 13 12 11 11 11 11 11 11 13 13 14 14 14 14 14 14 14 14 13 13 13 13 12 12 12 12 12 12 12 12 11 11 11 11
10 10 10 10 11 11 11 12 13 13 12 12 12 12 11 11 11 12 13 13 13 13 14 13 14 13 13 13 13 13 12 12 12 12 12 12 11 11 11 11 11 11 11 10
10 9 9 9 10 11 11 11 11 11 12 12 12 12 12 12 12 12 12 13 13 13 13 13 13 13 13 12 12 12 12 12 12 12 11 11 11 11 11 11 10 10 10 10
8 9 8 9 10 10 10 11 11 12 12 12 12 12 12 12 12 12 12 12 12 12 13 12 12 12 12 12 12 12 12 12 11 11 11 11 11 11 10 10 10 10 10 10
7 7 7 8 8 9 10 10 11 11 11 12 12 12 12 11 11 11 12 12 12 12 12 12 12 12 12 12 12 11 11 11 11 11 10 10 10 10 10 10 9 9 9 9
7 7 7 7 8 9 10 10 10 11 11 11 11 11 11 11 11 11 11 11 11 11 12 11 11 11 11 11 11 11 11 11 10 10 10 10 10 9 9 9 9 9 9 9
6 7 7 7 8 8 9 10 10 10 10 10 10 10 10 11 10 11 11 11 11 11 11 11 11 11 10 10 10 10 10 10 10 9 9 9 9 9 9 9 8 8 8 8
Wind_Speed
3 4 2 5 5 4 3 3 3 4 2 2 4 5 6 3 3 4 4 5 7 8 7 3 3 3 4 4 5 6 5 4 4 3 3 3 2 1 1 1 3 4 4 5
5 2 6 4 3 3 2 2 3 4 1 3 3 5 5 3 5 5 6 7 7 6 4 4 4 4 4 5 5 6 6 5 5 4 3 3 3 2 1 1 2 3 4 5
5 5 2 3 2 2 2 4 4 4 2 1 0 5 4 3 3 3 4 5 6 7 7 6 6 6 5 6 6 6 6 6 5 4 4 4 3 2 2 1 0 1 3 4
3 4 2 2 3 4 4 5 5 3 1 2 1 3 6 4 3 4 4 4 5 7 7 7 7 7 7 7 6 5 5 5 5 5 5 6 4 3 3 2 1 1 2 3
3 1 2 3 5 6 5 1 1 1 3 1 1 2 7 2 4 6 5 5 6 6 7 7 8 8 7 6 5 5 5 5 5 5 6 6 4 3 2 2 2 1 1 2
3 2 3 4 2 3 3 5 5 5 4 2 4 4 6 4 6 5 4 4 5 5 6 6 6 5 5 5 5 5 5 4 5 5 5 5 6 5 4 3 3 2 1 1
4 4 2 1 2 2 4 5 3 4 2 5 2 3 7 6 5 6 6 5 4 4 5 5 5 6 6 6 6 6 6 5 4 5 5 5 6 6 6 5 4 3 2 1
1 5 3 1 4 4 3 7 6 4 4 4 2 5 6 4 3 3 3 3 3 3 4 5 6 6 6 6 6 7 7 6 5 5 5 4 5 4 4 4 4 4 4 3
4 5 4 2 2 6 4 3 5 5 2 2 5 6 7 1 2 1 1 1 1 2 4 4 4 5 5 6 6 7 7 5 5 5 4 4 4 4 4 4 4 3 3 3
5 4 4 2 4 3 4 6 5 5 4 4 5 5 5 5 3 1 1 0 2 1 2 3 4 4 5 5 5 5 5 6 5 5 4 4 4 4 4 4 4 4 3 3
3 3 3 2 3 4 3 3 4 4 4 5 3 6 4 5 4 3 3 3 3 3 2 2 3 3 4 3 4 4 4 4 4 5 4 3 3 3 4 4 4 4 3 3
3 4 3 5 4 3 5 6 6 4 4 4 3 7 4 3 3 2 3 3 3 2 2 2 2 2 3 3 3 4 4 4 4 4 4 4 3 3 3 3 3 3 4 3
3 4 1 5 4 2 1 3 4 4 4 5 5 7 3 2 2 2 3 3 2 2 1 1 2 2 2 3 3 3 4 4 4 4 4 3 3 3 4 3 3 3 3 3
4 4 6 7 6 3 3 2 3 4 4 5 7 8 7 4 3 4 4 3 3 2 2 2 1 2 3 3 3 3 3 3 4 4 4 4 4 4 4 4 3 3 4 4
4 3 4 6 5 4 5 5 5 6 7 8 8 8 9 7 5 5 4 3 2 2 2 2 2 2 2 2 3 3 3 3 4 5 5 5 4 3 4 3 3 3 3 3
2 3 2 4 3 4 5 6 6 7 6 7 6 7 7 4 2 2 3 3 3 3 3 3 3 3 3 4 4 3 3 3 3 5 5 4 4 3 4 4 4 3 3 3
1 3 2 4 3 2 6 7 7 5 4 5 7 7 4 2 3 4 4 3 3 4 3 3 4 4 4 5 5 4 4 3 3 4 4 4 4 4 4 4 3 4 3 3
5 3 3 2 0 6 6 2 4 5 3 4 4 4 3 3 4 3 1 2 3 3 3 4 4 4 3 3 4 3 3 3 4 3 4 4 5 5 4 4 4 4 3 3
6 6 3 3 4 6 5 2 2 4 3 3 4 3 3 2 3 3 2 2 3 3 3 3 3 3 3 3 3 3 3 3 3 4 4 4 5 5 5 5 5 4 3 3
3 3 4 3 4 6 5 3 3 2 3 2 2 2 2 2 1 5 5 3 3 2 1 1 1 1 2 2 4 4 4 4 4 5 5 5 5 5 6 6 5 3 3 4
2 1 3 4 5 6 5 4 1 3 5 3 2 3 2 3 4 4 4 3 2 2 1 1 1 1 2 2 4 5 4 5 6 5 4 4 4 5 5 5 4 4 4 3
4 3 4 4 4 6 2 1 3 4 3 3 2 2 2 3 2 2 2 2 2 2 2 1 0 0 1 1 3 4 5 5 4 4 4 4 4 3 3 4 4 4 4 4
3 4 4 5 5 3 3 3 3 3 3 3 3 3 3 2 3 3 3 3 2 2 2 1 1 0 1 1 2 4 4 3 4 4 3 3 3 2 3 4 4 4 4 4
3 1 2 3 5 6 6 5 5 3 3 4 3 3 2 3 3 3 4 3 3 3 2 1 1 1 1 2 1 2 3 3 4 4 3 3 3 3 2 3 3 4 4 4
4 2 2 4 6 5 5 5 5 5 4 3 3 2 2 2 3 4 4 4 3 3 2 2 2 2 3 2 2 1 1 2 3 3 3 3 3 3 3 2 3 4 5 6
4 5 5 6 6 4 6 6 5 4 5 4 3 4 3 3 4 3 4 4 3 3 3 2 2 3 3 2 2 1 2 3 3 2 2 3 3 3 2 2 1 2 3 4
Wind_Direction
54 82 191 218 201 200 189 206 256 264 231 170 219 248 261 222 200 216 216 212 215 225 233 214 181 168 152 152 155 159 157 159 145 136 138 134 141 125 80 98 116 125 130 130
48 269 240 211 174 156 184 240 272 293 276 180 236 266 266 217 209 217 218 219 220 223 221 202 177 168 175 173 173 169 172 168 167 161 153 143 137 128 123 84 94 124 134 135
183 238 214 155 160 180 234 210 224 240 343 43 83 305 279 267 224 234 229 226 218 212 208 199 190 190 185 185 186 186 183 174 168 150 126 107 83 67 67 70 87 134 147 143
226 255 175 172 213 181 249 234 215 214 175 277 123 280 282 264 272 247 242 233 224 218 206 196 193 193 195 197 187 185 178 170 164 152 152 152 154 169 195 184 177 146 148 147
249 230 183 214 225 187 221 243 176 190 173 243 293 208 282 307 278 268 253 236 228 216 205 199 196 196 196 187 179 179 170 170 168 163 164 162 164 176 166 145 147 157 148 149
254 260 201 216 231 173 150 72 59 51 79 262 231 194 274 241 238 262 256 240 223 211 205 203 195 184 186 176 169 169 168 177 173 167 167 170 172 170 161 170 173 179 164 175
319 310 290 152 82 40 89 93 28 356 359 254 241 206 249 255 241 230 234 236 223 200 194 192 188 187 189 183 180 177 176 184 177 173 176 182 182 177 179 186 187 182 184 200
209 287 270 204 176 185 179 147 164 208 232 277 285 233 253 267 272 246 219 209 198 193 194 197 196 191 192 194 189 184 186 191 179 182 188 185 179 178 185 188 186 193 199 203
187 253 287 254 183 145 141 170 169 147 172 261 275 283 299 297 340 358 55 91 194 204 200 199 197 190 192 194 196 193 188 187 183 186 187 186 183 182 187 187 183 195 201 193
168 237 285 293 76 46 147 146 107 134 171 242 282 274 255 272 279 333 18 263 243 240 216 203 194 191 197 198 194 180 180 186 185 179 186 191 195 192 182 172 182 194 199 188
144 180 299 11 163 183 111 114 121 134 162 172 250 269 231 232 247 251 255 248 234 226 221 208 200 194 189 179 176 175 176 175 179 183 180 178 184 181 172 175 187 192 195 188
142 138 240 260 260 198 168 166 149 163 214 185 196 263 280 246 248 249 268 267 252 237 229 210 191 177 163 168 175 183 183 182 190 186 179 180 176 169 167 175 187 184 183 190
135 119 41 339 347 11 137 160 153 141 142 169 190 258 313 352 344 311 278 267 254 233 216 188 169 177 183 179 177 184 188 190 186 175 174 175 171 172 184 190 187 179 175 173
118 132 178 206 224 220 244 226 174 153 178 209 222 250 285 301 294 294 288 267 242 219 193 170 179 205 205 193 180 182 193 189 176 170 173 183 193 187 189 187 182 182 177 170
112 172 216 236 241 224 232 237 214 211 206 207 233 238 259 259 256 259 267 266 230 212 202 206 209 219 212 198 189 183 188 186 178 174 183 199 203 187 175 176 177 178 176 174
103 178 208 263 258 252 261 256 234 232 227 229 243 258 261 265 268 274 260 235 217 224 224 217 210 207 211 203 196 189 192 197 177 183 196 199 190 179 176 181 169 160 167 169
164 159 172 254 275 304 265 241 221 220 214 199 222 245 268 283 263 258 253 229 225 233 229 222 219 213 214 207 191 192 203 185 173 189 198 199 188 189 193 180 165 176 183 171
178 168 171 224 133 235 245 241 207 209 235 227 245 270 257 266 280 277 244 228 250 249 238 234 226 218 220 207 193 184 179 178 182 191 199 197 189 192 191 173 184 191 183 183
188 168 159 166 224 268 289 274 205 202 259 246 240 280 315 334 355 329 309 274 262 258 252 246 228 210 203 198 180 156 159 177 189 202 205 204 196 189 183 188 199 196 181 185
101 135 150 169 201 239 254 277 287 155 264 272 225 257 276 56 342 284 306 309 308 316 300 278 224 173 180 203 165 156 179 186 207 215 213 203 195 189 192 196 197 192 188 194
91 113 176 197 223 254 266 293 38 165 258 279 249 245 213 212 223 254 298 317 319 322 320 338 126 160 205 194 165 174 192 212 221 215 202 191 192 195 194 191 185 178 179 175
188 182 192 174 212 252 300 89 162 234 280 278 269 246 227 244 262 274 292 303 320 335 344 5 75 329 303 198 173 188 214 226 209 189 181 186 189 191 177 172 177 175 172 175
208 208 204 201 219 282 308 266 277 261 271 279 266 262 231 249 273 287 293 296 306 311 301 301 206 221 309 273 194 203 232 207 180 178 186 189 180 168 165 170 178 178 177 182
277 250 201 261 275 292 303 311 319 314 287 284 276 267 238 241 263 275 282 289 293 294 286 285 191 187 262 269 253 225 222 199 172 184 193 183 174 173 171 182 183 186 192 198
246 221 235 268 281 307 309 311 313 323 327 318 309 286 256 249 271 273 279 283 282 290 288 262 223 224 245 248 254 248 207 178 174 188 195 191 186 182 184 193 203 205 213 210
240 218 218 245 250 245 274 294 301 305 305 302 307 314 306 271 265 283 284 280 276 278 278 263 251 239 248 246 255 250 202 174 167 185 197 197 192 186 184 188 256 259 234 236
Height
1494 1500 1505 1504 1503 1504 1506 1510 1512 1508 1503 1505 1508 1507 1504 1503 1503 1503 1503 1504 1505 1506 1508 1510 1512 1514 1516 1519 1520 1522 1524 1526 1527 1528 1529 1530 1531 1532 1533 1534 1534 1535 1535 1535
1500 1503 1498 1498 1499 1502 1505 1510 1511 1507 1502 1505 1508 1507 1502 1501 1501 1501 1501 1502 1502 1504 1506 1508 1510 1512 1514 1516 1518 1521 1523 1524 1526 1527 1529 1530 1531 1532 1533 1533 1534 1534 1535 1535
1501 1499 1495 1497 1500 1504 1506 1508 1508 1508 1505 1505 1507 1509 1504 1500 1499 1499 1499 1499 1500 1501 1502 1505 1507 1509 1512 1514 1516 1519 1521 1523 1525 1526 1528 1529 1530 1531 1532 1532 1533 1534 1534 1535
1498 1495 1495 1498 1501 1502 1508 1500 1502 1505 1511 1516 1511 1522 1507 1501 1499 1497 1497 1497 1497 1498 1500 1502 1504 1507 1509 1512 1515 1517 1519 1521 1523 1525 1526 1527 1528 1529 1530 1531 1532 1533 1533 1534
1498 1494 1495 1498 1498 1498 1500 1497 1501 1504 1510 1516 1515 1521 1512 1502 1500 1496 1494 1494 1494 1495 1497 1499 1501 1503 1507 1510 1512 1515 1517 1519 1521 1523 1524 1526 1527 1528 1529 1530 1531 1532 1532 1533
1495 1492 1492 1493 1492 1493 1496 1501 1505 1511 1516 1524 1516 1520 1515 1504 1498 1494 1491 1491 1492 1493 1495 1497 1499 1502 1505 1508 1511 1513 1515 1517 1519 1521 1522 1524 1525 1526 1527 1528 1529 1530 1531 1531
1499 1494 1491 1491 1494 1495 1498 1510 1524 1525 1531 1527 1514 1516 1511 1495 1491 1490 1489 1489 1489 1491 1493 1495 1497 1499 1502 1505 1508 1510 1512 1514 1516 1518 1520 1521 1523 1524 1525 1526 1527 1528 1529 1530
1507 1506 1493 1490 1493 1498 1500 1507 1524 1531 1533 1526 1515 1516 1503 1490 1488 1487 1487 1487 1488 1490 1491 1493 1495 1497 1500 1502 1505 1507 1510 1512 1514 1516 1517 1519 1520 1522 1523 1524 1525 1526 1527 1528
1507 1505 1491 1489 1489 1493 1501 1506 1506 1519 1522 1526 1520 1511 1498 1488 1487 1487 1486 1486 1487 1488 1490 1491 1493 1495 1498 1500 1503 1505 1507 1509 1511 1513 1515 1516 1518 1519 1520 1521 1523 1524 1525 1526
1497 1503 1494 1490 1490 1492 1495 1501 1512 1519 1527 1529 1520 1513 1506 1493 1489 1488 1487 1486 1486 1487 1489 1490 1492 1494 1496 1498 1500 1503 1505 1507 1508 1510 1512 1514 1515 1516 1518 1519 1520 1522 1523 1524
1494 1502 1499 1494 1495 1497 1500 1503 1508 1516 1518 1526 1526 1515 1493 1491 1488 1488 1486 1486 1486 1487 1487 1488 1490 1492 1494 1496 1498 1500 1502 1504 1506 1507 1509 1511 1512 1513 1515 1516 1518 1519 1520 1521
1495 1502 1506 1499 1491 1490 1493 1498 1505 1514 1517 1519 1521 1513 1487 1486 1485 1485 1485 1485 1485 1485 1486 1487 1488 1490 1492 1494 1496 1498 1499 1501 1503 1505 1506 1507 1509 1510 1512 1513 1515 1516 1517 1518
1494 1502 1510 1506 1502 1495 1494 1495 1498 1505 1513 1520 1520 1508 1486 1485 1484 1484 1484 1484 1484 1484 1485 1486 1487 1488 1490 1491 1493 1495 1496 1498 1500 1502 1503 1504 1505 1507 1509 1510 1512 1513 1514 1515
1490 1499 1506 1508 1504 1497 1497 1496 1497 1502 1510 1513 1510 1499 1489 1486 1485 1484 1483 1482 1482 1483 1483 1484 1485 1486 1487 1489 1491 1492 1494 1496 1497 1499 1500 1501 1502 1504 1506 1507 1509 1511 1512 1513
1490 1498 1497 1495 1492 1492 1492 1493 1494 1496 1497 1502 1497 1494 1487 1484 1483 1482 1481 1481 1480 1481 1481 1482 1483 1484 1485 1487 1488 1490 1491 1493 1494 1495 1497 1498 1499 1501 1503 1504 1506 1507 1508 1509
1491 1495 1495 1495 1491 1491 1491 1489 1490 1490 1491 1491 1490 1489 1482 1481 1481 1480 1479 1478 1478 1479 1479 1480 1481 1482 1483 1484 1485 1487 1488 1490 1491 1492 1493 1495 1496 1498 1499 1501 1502 1503 1505 1506
1493 1495 1498 1499 1493 1491 1494 1487 1486 1486 1485 1486 1488 1484 1479 1479 1478 1477 1476 1476 1476 1477 1478 1478 1479 1479 1480 1481 1483 1484 1486 1487 1488 1489 1490 1492 1493 1494 1496 1497 1498 1500 1501 1502
1491 1494 1499 1499 1497 1499 1487 1479 1478 1480 1481 1481 1480 1478 1478 1477 1476 1475 1475 1475 1475 1475 1475 1476 1477 1477 1478 1479 1481 1482 1483 1484 1485 1486 1487 1488 1490 1491 1492 1493 1495 1496 1497 1498
1485 1490 1498 1501 1499 1492 1483 1478 1478 1479 1480 1478 1478 1476 1476 1475 1474 1474 1474 1474 1473 1473 1474 1474 1475 1475 1476 1477 1478 1479 1480 1481 1482 1483 1484 1485 1486 1488 1489 1489 1491 1492 1493 1494
1485 1487 1494 1498 1496 1495 1483 1476 1474 1476 1481 1476 1475 1475 1475 1474 1478 1475 1472 1472 1472 1472 1472 1472 1472 1473 1473 1474 1475 1476 1477 1478 1479 1480 1481 1482 1483 1484 1485 1485 1487 1488 1489 1490
1489 1491 1494 1495 1493 1487 1479 1474 1474 1484 1481 1475 1473 1473 1473 1473 1473 1473 1471 1470 1470 1470 1470 1470 1470 1470 1471 1472 1472 1473 1473 1474 1475 1477 1478 1478 1479 1480 1481 1482 1483 1484 1485 1487
1488 1490 1492 1493 1492 1488 1476 1474 1478 1477 1473 1472 1471 1471 1471 1470 1470 1470 1470 1469 1469 1469 1469 1468 1467 1467 1468 1469 1469 1469 1470 1471 1472 1473 1474 1475 1476 1477 1477 1478 1479 1480 1482 1483
1486 1486 1485 1485 1484 1478 1475 1474 1473 1472 1471 1470 1469 1469 1469 1468 1468 1468 1468 1467 1467 1467 1467 1466 1466 1465 1466 1466 1466 1466 1467 1467 1468 1469 1470 1471 1472 1473 1474 1475 1475 1476 1477 1478
1483 1482 1482 1482 1478 1476 1474 1472 1471 1470 1469 1468 1468 1467 1467 1466 1466 1466 1465 1465 1465 1464 1464 1464 1463 1463 1463 1463 1464 1464 1464 1465 1465 1465 1466 1467 1468 1469 1470 1471 1472 1472 1473 1474
1482 1481 1481 1480 1476 1473 1471 1471 1470 1468 1467 1466 1465 1465 1465 1464 1463 1463 1462 1462 1462 1462 1461 1461 1460 1460 1460 1460 1461 1461 1461 1461 1461 1462 1462 1463 1464 1465 1466 1467 1468 1468 1469 1470
1478 1478 1479 1476 1473 1473 1471 1469 1468 1466 1465 1464 1463 1462 1462 1462 1461 1460 1460 1459 1459 1458 1458 1458 1457 1457 1458 1457 1457 1458 1458 1458 1458 1458 1459 1460 1460 1461 1462 1463 1463 1464 1465 1466